Погода в Сассари

Италия     40°43′14″N   8°33′50″E
темп.,
°C
ветер,
м/с
пор.,
м/с
влажн.,
%
обл.,
%
осадки,
мм/ч
давл.,
гПа
погр.,
м
13 мая, чт
чт1323:00+15юз6128350 0.4 1013729
02:00+13юз4108979 0.8 1013293
05:00+12з23924 0.4 1012144
08:00+14зсз478357 0.4 1012807
11:00+17зсз78545 0.0 10131151
14:00+18з811465 0.0 10131370
17:00+17з811492 0.0 10121351
20:00+14зюз5965100 0.0 1012656
14 мая, пт
пт1423:00+11юз377874 0.0 1013246
02:00+11ююз368899 0.0 1013181
05:00+11ю4690100 0.0 1011130
08:00+13ю4784100 0.3 1011316
11:00+15юз81281100 0.3 10111033
14:00+14юз61189100 2.5 1011998
17:00+15зсз787572 2.2 10111231
20:00+14з5874100 2.4 1012629
15 мая, сб
сб1523:00+11зюз478345 0.0 1014276
02:00+14зсз71378100 0.0 1013621
05:00+13з612777 0.0 1014566
08:00+15зсз71077100 0.0 1016901
11:00+18зсз69526 0.0 10161273
14:00+20зюз71050100 0.0 10161351
17:00+18юз7959100 0.0 1015987
20:00+16ююз5107523 0.0 1015575
16 мая, вс
вс1623:00+13ю48905 0.0 1015208
02:00+12ю47855 0.0 1014166
05:00+12ююв468011 0.0 1013131
08:00+16ю49665 0.0 1013329
11:00+23юз694233 0.0 1012698
14:00+25юз711345 0.0 1012839
17:00+23юз710400 0.0 1011603
20:00+19юз46660 0.0 1012185
17 мая, пн
пн1723:00+15ю34731 0.0 101260
02:00+15юз228296 0.0 101223
05:00+14ю229319 0.0 101230
08:00+17з12835 0.0 1014245
11:00+20сз44627 0.0 1014700
14:00+20ссз665560 0.0 1015788
17:00+18ссз354698 0.0 1015602
20:00+15сз3664100 0.0 1017476